Back to catalog

BREEZE-M DEB

TANK

AliveHEO
NORAD 38979·DEBRIS·🇷🇺 Russia

Launched Nov 2, 2012 from Baikonur Cosmodrome

Loading…

Next Passes (next 24 hours)

TLE

FreshSource: Space-Track

Epoch: Sep 11, 2026, 04:16 UTC

1 38979U 12061C   26254.17792379  .00000134  00000-0  47605-3 0  9993
2 38979  46.9003 153.3005 7100500 119.5070 327.9140  2.27849688113750

Track BREEZE-M DEB in real time with AllMySat

Download on the App Store